Location: ??????
(55.0357°N, 38.6195°E)
Time: 05:00:05
(UTC+00:00)

Meteor 1-27 Rocket - Pass Details

Date: 14 April 2024
Orbit: 829 x 910 km, 81.3° (Epoch: 20 May)

Event Time Altitude Azimuth Distance (km) Brightness Sun altitude
Exits shadow 01:14:49 - 210° (SSW) 2,664 5.8 -9.8°
Reaches altitude 10° 01:15:09 10° 211° (SSW) 2,542 5.6 -9.7°
Maximum altitude 01:20:50 57° 290° (WNW) 1,023 4.0 -9.1°
Drops below altitude 10° 01:26:27 10° 9° (N) 2,504 6.7 -8.4°
Sets 01:28:55 0° 13° (NNE) 3,433 7.6 -8.1°
